Date String (YYYY-MM-DD hh:mm:ss) UTC,Instrument flags,Ambient pressure (hPa),Sample flow (lpm),Bypass flow (lpm),Sample temperature (°C),Ambient temperature (°C),ASC tube jacket temperature (°C),LED temperature (°C),Box temperature (°C),Sample RH (%),Span deviation,Mass concentration (μg/m³),Mass concentration (μg/m³),Mass concentration (μg/m³)
DateTimeUTC,F1_M11,P_M11,Q1_M11,Q2_M11,T1_M11,T2_M11,T3_M11,T4_M11,T5_M11,U1_M11,ZSPAN_M11,X0_M11,X2_M11,X1_M11
2022-02-15 03:00:00,,0821.0,5.01,0.00,24.8,24.2,00.0,33.8,26.7,09.9,0000.0,0019.02,0009.70,0008.57
2022-02-15 03:01:00,,0821.0,4.99,0.00,24.9,24.2,00.0,33.8,26.7,10.1,0000.0,0019.31,0009.70,0008.53
2022-02-15 03:02:00,,0821.0,4.99,0.00,24.9,24.3,00.0,33.8,26.7,10.0,0000.0,0019.37,0009.66,0008.49
2022-02-15 03:03:00,,0821.0,5.00,0.00,24.9,24.3,00.0,33.8,26.7,09.5,0000.0,0019.41,0009.67,0008.46
2022-02-15 03:04:00,,0821.0,5.00,0.00,24.9,24.3,00.0,33.8,26.7,09.3,0000.0,0019.30,0009.62,0008.43
2022-02-15 03:05:00,,0821.0,4.98,0.00,24.9,24.2,00.0,33.8,26.7,09.4,0000.0,0018.02,0009.51,0008.41
2022-02-15 03:06:00,,0821.0,5.01,0.00,24.9,24.2,00.0,33.8,26.7,09.4,0000.0,0017.21,0009.46,0008.39
2022-02-15 03:07:00,,0821.0,4.99,0.00,24.9,24.2,00.0,33.8,26.7,09.1,0000.0,0017.76,0009.43,0008.34
2022-02-15 03:08:00,,0820.9,5.00,0.00,24.9,24.2,00.0,33.8,26.7,09.2,0000.0,0018.25,0009.40,0008.28
2022-02-15 03:09:00,,0820.9,5.01,0.00,24.9,24.2,00.0,33.8,26.7,08.6,0000.0,0018.22,0009.31,0008.19
2022-02-15 03:10:00,,0821.0,4.98,0.00,24.9,24.2,00.0,33.8,26.7,08.5,0000.0,0018.17,0009.25,0008.09
2022-02-15 03:11:00,,0820.9,4.99,0.00,24.9,24.2,00.0,33.8,26.7,08.7,0000.0,0018.59,0009.15,0007.99
2022-02-15 03:12:00,,0820.9,5.01,0.00,24.9,24.2,00.0,33.8,26.7,08.4,0000.0,0018.37,0009.05,0007.90
2022-02-15 03:13:00,,0820.9,5.00,0.00,24.9,24.2,00.0,33.8,26.7,08.7,0000.0,0019.40,0008.99,0007.80
2022-02-15 03:14:00,,0821.0,4.99,0.00,24.9,24.2,00.0,33.8,26.7,08.8,0000.0,0020.45,0008.93,0007.71
2022-02-15 03:15:00,,0821.0,4.99,0.00,24.9,24.2,00.0,33.8,26.8,09.1,0000.0,0021.19,0008.90,0007.67
2022-02-15 03:16:00,,0821.0,5.02,0.00,24.9,24.3,00.0,33.9,26.8,09.2,0000.0,0021.49,0008.86,0007.62
2022-02-15 03:17:00,,0821.0,4.99,0.00,25.0,24.3,00.0,33.9,26.8,09.1,0000.0,0021.30,0008.80,0007.58
2022-02-15 03:18:00,,0820.9,5.00,0.00,25.0,24.3,00.0,33.9,26.8,08.8,0000.0,0020.52,0008.76,0007.57
2022-02-15 03:19:00,,0820.8,4.99,0.00,25.0,24.3,00.0,33.9,26.8,08.7,0000.0,0020.13,0008.67,0007.55
2022-02-15 03:20:00,,0820.8,5.00,0.00,25.0,24.3,00.0,33.9,26.8,08.6,0000.0,0019.89,0008.69,0007.55
2022-02-15 03:21:00,,0820.8,5.00,0.00,25.0,24.3,00.0,33.9,26.8,08.5,0000.0,0019.73,0008.68,0007.56
2022-02-15 03:22:00,,0820.9,4.99,0.00,25.0,24.3,00.0,33.9,26.8,08.5,0000.0,0019.02,0008.66,0007.58
2022-02-15 03:23:00,,0821.0,5.00,0.00,25.0,24.3,00.0,33.9,26.9,08.6,0000.0,0019.25,0008.66,0007.59
2022-02-15 03:24:00,,0821.0,5.01,0.00,25.0,24.3,00.0,33.9,26.9,08.8,0000.0,0018.89,0008.62,0007.60
2022-02-15 03:25:00,,0820.9,5.01,0.00,25.0,24.3,00.0,33.9,26.9,09.0,0000.0,0017.93,0008.61,0007.62
2022-02-15 03:26:00,,0820.9,4.99,0.00,25.0,24.3,00.0,33.9,26.9,08.7,0000.0,0017.09,0008.58,0007.61
2022-02-15 03:27:00,,0820.8,4.99,0.00,25.1,24.3,00.0,33.9,26.9,08.4,0000.0,0017.27,0008.52,0007.60
2022-02-15 03:28:00,,0820.8,5.01,0.00,25.1,24.3,00.0,34.0,26.9,08.4,0000.0,0017.11,0008.51,0007.59
2022-02-15 03:29:00,,0820.8,5.00,0.00,25.1,24.3,00.0,33.9,26.9,08.2,0000.0,0016.96,0008.52,0007.59
2022-02-15 03:30:00,,0820.7,4.99,0.00,25.1,24.3,00.0,33.9,26.9,08.1,0002.1,0016.81,0008.56,0007.62
2022-02-15 03:31:00,,0820.8,5.01,0.00,25.1,24.3,00.0,34.0,26.9,08.0,0003.3,0017.20,0008.56,0007.62
2022-02-15 03:32:00,,0820.8,5.00,0.00,25.1,24.3,00.0,34.0,26.9,08.0,0003.6,0017.44,0008.57,0007.65
2022-02-15 03:33:00,,0820.9,4.99,0.00,25.1,24.3,00.0,34.0,26.9,07.9,0003.7,0017.40,0008.58,0007.65
2022-02-15 03:34:00,,0820.9,5.02,0.00,25.1,24.3,00.0,34.0,26.9,08.0,0003.6,0016.96,0008.57,0007.64
2022-02-15 03:35:00,,0820.8,4.99,0.00,25.1,24.3,00.0,34.0,26.9,08.0,0004.0,0016.46,0008.61,0007.63
2022-02-15 03:36:00,,0820.8,4.99,0.00,25.1,24.3,00.0,34.0,26.9,07.9,0003.1,0016.81,0008.60,0007.60
2022-02-15 03:37:00,,0820.8,4.99,0.00,25.1,24.4,00.0,34.0,26.9,08.2,0002.9,0016.67,0008.58,0007.58
2022-02-15 03:38:00,,0820.8,4.99,0.00,25.1,24.4,00.0,34.0,26.9,08.9,0002.6,0016.55,0008.68,0007.57
2022-02-15 03:39:00,,0820.8,5.01,0.00,25.1,24.4,00.0,34.0,26.9,08.7,0002.0,0017.11,0008.75,0007.59
2022-02-15 03:40:00,,0820.8,4.99,0.00,25.1,24.3,00.0,34.0,26.9,08.8,0000.2,0017.94,0008.82,0007.61
2022-02-15 03:41:00,,0820.8,5.02,0.00,25.1,24.3,00.0,34.0,26.9,08.8,0000.0,0018.59,0008.82,0007.62
2022-02-15 03:42:00,,0820.8,4.99,0.00,25.1,24.3,00.0,34.0,26.9,08.7,0000.0,0018.32,0008.80,0007.64
2022-02-15 03:43:00,,0820.8,4.99,0.00,25.1,24.3,00.0,34.0,26.8,08.6,0000.0,0018.37,0008.85,0007.64
2022-02-15 03:44:00,,0820.7,5.01,0.00,25.1,24.3,00.0,34.0,26.9,08.5,0000.0,0019.26,0008.90,0007.65
2022-02-15 03:45:00,,0820.6,4.99,0.00,25.1,24.3,00.0,34.0,26.8,08.6,0000.0,0019.66,0008.92,0007.66
2022-02-15 03:46:00,,0820.6,5.01,0.00,25.1,24.3,00.0,34.0,26.9,08.5,0002.1,0020.08,0008.94,0007.68
2022-02-15 03:47:00,,0820.7,4.98,0.00,25.1,24.3,00.0,34.0,26.9,08.3,0001.1,0020.08,0008.92,0007.71
2022-02-15 03:48:00,,0820.7,5.01,0.00,25.1,24.3,00.0,34.0,26.8,08.2,0000.0,0019.95,0008.92,0007.72
2022-02-15 03:49:00,,0820.7,4.99,0.00,25.1,24.3,00.0,34.0,26.8,08.4,0000.0,0019.37,0008.86,0007.70
2022-02-15 03:50:00,,0820.7,5.01,0.00,25.0,24.3,00.0,34.0,26.8,08.9,0000.9,0019.18,0008.84,0007.69
2022-02-15 03:51:00,,0820.7,4.99,0.00,25.0,24.3,00.0,34.0,26.8,09.1,0000.0,0018.58,0008.86,0007.68
2022-02-15 03:52:00,,0820.8,5.01,0.00,25.1,24.3,00.0,34.0,26.8,09.2,0002.8,0018.64,0008.87,0007.70
2022-02-15 03:53:00,,0820.9,4.99,0.00,25.0,24.3,00.0,34.0,26.8,09.0,0002.7,0019.09,0008.94,0007.73
2022-02-15 03:54:00,,0820.9,5.01,0.00,25.0,24.3,00.0,34.0,26.8,08.4,0002.0,0018.79,0008.89,0007.71
2022-02-15 03:55:00,,0820.7,5.00,0.00,25.0,24.3,00.0,34.0,26.8,08.3,0000.0,0017.86,0008.85,0007.67
2022-02-15 03:56:00,,0820.6,4.99,0.00,25.0,24.3,00.0,34.0,26.8,08.2,0000.0,0017.41,0008.78,0007.64
2022-02-15 03:57:00,,0820.6,5.01,0.00,25.0,24.2,00.0,34.0,26.8,08.2,0000.0,0016.93,0008.70,0007.60
2022-02-15 03:58:00,,0820.5,4.99,0.00,25.0,24.1,00.0,34.0,26.8,08.1,0000.0,0016.68,0008.67,0007.56
2022-02-15 03:59:00,,0820.6,5.02,0.00,25.0,24.1,00.0,34.0,26.7,08.1,0000.0,0016.71,0008.64,0007.54
